Orbital Elements at Epoch 2459200.5 (2020-Dec-17.0) TDB
Reference: JPL 22 (heliocentric ecliptic J2000)
Element | Value | Uncertainty (1-sigma) | Units |
e | .1792087599656947 | 4.2731e-08 | |
a | 2.171153731304476 | 7.7326e-09 | au |
q | 1.782063963422509 | 9.4828e-08 | au |
i | 4.198197259107802 | 3.5262e-06 | deg |
node | 61.69290782459561 | 6.1058e-05 | deg |
peri | 317.2219075358386 | 6.1923e-05 | deg |
M | 330.5814252763103 | 1.0681e-05 | deg |
tp | 2459295.989015819521 (2021-Mar-22.48901582) | 3.4931e-05 | TDB |
period | 1168.514994961526 3.20 | 6.2425e-06 1.709e-08 | d yr |
n | .3080833378709473 | 1.6459e-09 | deg/d |
Q | 2.560243499186441 | 9.1183e-09 | au |
|
| | Orbit Determination Parameters
Additional Information
|